• Join FlightAware (Why Join?)
  • Login
  • US Flag 
04:35PM EDT


 

Airport Tracker/Info


-or-


 

Live Flight TrackerFlight Track Log ✈ ASQ6130 ✈ 16 Jun 2013 ✈ KDIK - KDEN

Flight Track Log - Related Links

Times and Time Zones

All times are in EDT time to prevent confusion due to time zone crossing. See the ASQ6130 flight status page for this flight to view local times or setup timezone preferences in your user account.

Time Position Orientation Groundspeed Altitude Reporting Facility
EDT Latitude Longitude Course Direction KTS MPH feet Rate Location/Type
01:59PM 46.7511 -102.8708 189° South 270 311 7,500  Level Minneapolis Center
02:00PM 46.6561 -102.8706 180° South 279 321 10,000 1,680 Climbing Minneapolis Center
02:01PM 46.5642 -102.8750 182° South 303 349 11,000 1,380 Climbing Minneapolis Center
02:02PM 46.4611 -102.8819 183° South 345 397 12,900 1,620 Climbing Minneapolis Center
02:03PM 46.1838 -102.9862 182° South  Level Estimated
02:03PM 46.3558 -102.8894 183° South 370 426 14,400  Level Minneapolis Center
02:04PM 46.2497 -102.8953 182° South 378 435 15,800 1,380 Climbing Minneapolis Center
02:05PM 46.1408 -102.9011 182° South 386 444 17,300 1,500 Climbing Minneapolis Center
02:06PM 46.0092 -102.9081 182° South 393 452 19,000 1,500 Climbing Minneapolis Center
02:07PM 45.8989 -102.9136 182° South 395 455 20,500 1,380 Climbing Minneapolis Center
02:08PM 45.7858 -102.9206 182° South 403 464 21,900 1,380 Climbing Minneapolis Center
02:09PM 45.6717 -102.9269 182° South 407 468 23,400 1,320 Climbing Minneapolis Center
02:10PM 45.5517 -102.9331 182° South 410 472 24,700 720 Climbing Minneapolis Center
02:11PM 45.4350 -102.9517 186° South 419 482 25,000 120 Climbing Minneapolis Center
02:12PM 45.3153 -102.9942 194° South 437 503 25,000  Level Minneapolis Center
02:13PM 45.1669 -103.0453 194° South 452 520 25,000  Level Minneapolis Center
02:14PM 45.0461 -103.0914 195° South 452 520 25,000  Level Minneapolis Center
02:15PM 44.9267 -103.1389 196° South 448 516 25,000  Level Minneapolis Center
02:16PM 44.8561 -103.1703 198° South 448 516 25,000  Level Denver Center
02:17PM 44.7397 -103.2242 198° South 444 511 25,000  Level Denver Center
02:18PM 44.6247 -103.2897 202° Southwest 448 516 25,000  Level Denver Center
02:19PM 44.5244 -103.3806 213° Southwest 436 502 25,000  Level Denver Center
02:20PM 44.4153 -103.4786 213° Southwest 433 498 25,000  Level Denver Center
02:21PM 44.3011 -103.5778 212° Southwest 433 498 25,000  Level Denver Center
02:22PM 44.1994 -103.6558 209° Southwest 434 499 25,000  Level Denver Center
02:23PM 44.0728 -103.7233 201° Southwest 435 501 25,000  Level Denver Center
02:24PM 43.9553 -103.7497 189° South 446 513 25,000  Level Denver Center
02:25PM 43.8164 -103.7392 177° South 447 514 25,000  Level Denver Center
02:27PM 43.6947 -103.7214 174° South 453 521 25,000  Level Denver Center
02:28PM 43.5350 -103.7000 174° South 452 520 25,000  Level Denver Center
02:29PM 43.4133 -103.6817 174° South 455 524 25,000  Level Denver Center
02:30PM 43.2714 -103.6628 174° South 457 526 25,000  Level Denver Center
02:31PM 43.1489 -103.6464 174° South 459 528 25,000  Level Denver Center
02:32PM 43.0075 -103.6275 174° South 457 526 25,000  Level Denver Center
02:33PM 42.8853 -103.6111 174° South 458 527 25,000  Level Denver Center
02:34PM 42.7625 -103.5944 174° South 460 529 25,000  Level Denver Center
02:35PM 42.6189 -103.5761 175° South 462 532 25,000  Level Denver Center
02:36PM 42.4989 -103.5608 175° South 452 520 25,000  Level Denver Center
02:37PM 42.3633 -103.5425 174° South 439 505 25,000  Level Denver Center
02:38PM 42.2486 -103.5286 175° South 432 497 25,000  Level Denver Center
02:39PM 42.1158 -103.5097 174° South 429 494 25,000  Level Denver Center
02:40PM 42.0011 -103.4958 175° South 429 494 25,000  Level Denver Center
02:41PM 41.8686 -103.4825 176° South 428 493 25,000  Level Denver Center
02:42PM 41.7553 -103.4864 181° South 423 487 25,000  Level Denver Center
02:43PM 41.6411 -103.4889 181° South 426 490 25,000  Level Denver Center
02:44PM 41.5089 -103.4928 181° South 425 489 25,000  Level Denver Center
02:45PM 41.3956 -103.4961 181° South 424 488 25,000  Level Denver Center
02:46PM 41.2650 -103.4986 181° South 422 486 25,000  Level Denver Center
02:47PM 41.1519 -103.5028 182° South 424 488 25,000  Level Denver Center
02:48PM 41.0217 -103.5053 181° South 418 481 25,000  Level Denver Center
02:49PM 40.9092 -103.5261 188° South 413 475 25,000 -480 Level Denver Center
02:50PM 40.8156 -103.6047 212° Southwest 398 458 24,100 -540 Descending Denver Center
02:51PM 40.7214 -103.6883 214° Southwest 407 468 24,000 -60 Descending Denver Center
02:52PM 40.6211 -103.7731 213° Southwest 427 491 24,000 -480 Level Denver Center
02:53PM 40.5047 -103.8767 214° Southwest 423 487 23,100 -1,020 Descending Denver Center
02:54PM 40.4167 -103.9525 213° Southwest 383 441 22,000 -1,020 Descending Denver Center
02:55PM 40.3347 -104.0261 214° Southwest 336 387 21,000 -900 Descending Denver Center
02:57PM 40.2828 -104.0858 221° Southwest 327 376 20,200 -1,380 Descending Denver Center
02:58PM 40.1961 -104.1789 219° Southwest 328 377 18,200 -1,500 Descending Denver Center
02:59PM 40.1608 -104.2708 243° Southwest 369 425 17,100 -2,160 Descending Denver Center
03:00PM 40.1742 -104.4331 276° West 370 426 13,800 -2,460 Descending Denver Center
03:01PM 40.1992 -104.5539 285° West 326 375 12,000 -1,740 Descending Denver Center
03:02PM 40.1675 -104.6442 245° Southwest 289 333 10,300 -1,440 Descending Denver Center
03:03PM 40.0981 -104.6950 209° Southwest 261 300 9,100 -1,200 Descending Denver Center